| time (UTC) | temp C | wind direction | speed KPH | gust KPH | rain 1hr cm | rain 24hr cm | rain mn cm | humidity % | barometer mb |
| 20260506134510 | 15 | 0 | 0.0 | 0.0 | 0.00 | 0.00 | 0.43 | 99 | 1014.0 |
| 20260506133958 | 16 | 0 | 0.0 | 0.0 | 0.00 | 0.00 | 0.43 | 99 | 1014.0 |
| 20260506133431 | 16 | 0 | 0.0 | 0.0 | 0.00 | 0.00 | 0.43 | 99 | 1013.9 |
| 20260506132914 | 15 | 0 | 0.0 | 0.0 | 0.00 | 0.00 | 0.43 | 99 | 1013.9 |
| 20260506132405 | 15 | 0 | 0.0 | 0.0 | 0.00 | 0.00 | 0.43 | 99 | 1013.9 |
| 20260506131840 | 15 | 0 | 0.0 | 0.0 | 0.00 | 0.00 | 0.43 | 99 | 1013.8 |
| 20260506131323 | 15 | 0 | 0.0 | 0.0 | 0.00 | 0.00 | 0.43 | 99 | 1013.8 |
| 20260506130806 | 14 | 0 | 0.0 | 0.0 | 0.00 | 0.00 | 0.43 | 99 | 1013.8 |
| 20260506130248 | 13 | 0 | 0.0 | 0.0 | 0.00 | 0.00 | 0.43 | 99 | 1013.9 |
| 20260506125223 | 13 | 0 | 0.0 | 0.0 | 0.00 | 0.00 | 0.43 | 99 | 1013.9 |
| 20260506124655 | 12 | 0 | 0.0 | 0.0 | 0.00 | 0.00 | 0.43 | 99 | 1014.0 |
| 20260506124140 | 12 | 0 | 0.0 | 0.0 | 0.08 | 0.00 | 0.43 | 99 | 1013.9 |
| 20260506123624 | 12 | 0 | 0.0 | 0.0 | 0.05 | 0.00 | 0.41 | 99 | 1013.9 |
| 20260506122543 | 13 | 0 | 0.0 | 0.0 | 0.05 | 0.00 | 0.41 | 99 | 1013.8 |
| 20260506121505 | 14 | 0 | 0.0 | 0.0 | 0.00 | 0.00 | 0.36 | 99 | 1013.7 |
| 20260506120956 | 13 | 0 | 0.0 | 0.0 | 0.00 | 0.00 | 0.36 | 99 | 1013.5 |
| 20260506120431 | 13 | 0 | 0.0 | 0.0 | 0.00 | 0.00 | 0.36 | 99 | 1013.6 |
| 20260506115914 | 12 | 0 | 0.0 | 0.0 | 0.00 | 0.00 | 0.36 | 99 | 1013.7 |
| 20260506115357 | 12 | 0 | 0.0 | 0.0 | 0.00 | 0.00 | 0.36 | 99 | 1013.7 |
| 20260506114840 | 12 | 0 | 0.0 | 0.0 | 0.00 | 0.00 | 0.36 | 99 | 1013.8 |
| 20260506114322 | 12 | 0 | 0.0 | 0.0 | 0.18 | 0.00 | 0.36 | 99 | 1013.7 |
| 20260506113813 | 12 | 0 | 0.0 | 0.0 | 0.18 | 0.00 | 0.36 | 99 | 1013.7 |
| 20260506113248 | 12 | 0 | 0.0 | 0.0 | 0.15 | 0.00 | 0.33 | 99 | 1013.8 |
| 20260506112737 | 12 | 0 | 0.0 | 0.0 | 0.13 | 0.00 | 0.30 | 99 | 1013.7 |
| 20260506112212 | 13 | 0 | 0.0 | 0.0 | 0.05 | 0.00 | 0.20 | 99 | 1013.8 |
| 20260506111655 | 13 | 0 | 0.0 | 0.0 | 0.03 | 0.00 | 0.18 | 99 | 1013.8 |
| 20260506110622 | 15 | 0 | 0.0 | 0.0 | 0.00 | 0.00 | 0.15 | 99 | 1013.5 |
| 20260506110110 | 15 | 0 | 0.0 | 0.0 | 0.00 | 0.00 | 0.15 | 99 | 1013.5 |
| 20260506105544 | 15 | 0 | 0.0 | 0.0 | 0.00 | 0.00 | 0.15 | 99 | 1013.6 |
| 20260506105024 | 15 | 0 | 0.0 | 0.0 | 0.00 | 0.00 | 0.15 | 99 | 1013.7 |
| 20260506104507 | 15 | 0 | 0.0 | 0.0 | 0.13 | 0.00 | 0.15 | 99 | 1013.7 |
| 20260506103949 | 15 | 0 | 0.0 | 0.0 | 0.13 | 0.00 | 0.15 | 99 | 1013.7 |
| 20260506103432 | 13 | 0 | 0.0 | 0.0 | 0.13 | 0.00 | 0.15 | 99 | 1013.7 |
| 20260506102921 | 12 | 0 | 0.0 | 0.0 | 0.13 | 0.00 | 0.15 | 99 | 1013.7 |
| 20260506102356 | 12 | 0 | 0.0 | 0.0 | 0.13 | 0.00 | 0.15 | 99 | 1013.8 |
| 20260506101839 | 12 | 0 | 0.0 | 0.0 | 0.13 | 0.00 | 0.15 | 99 | 1013.8 |
| 20260506101322 | 12 | 0 | 0.0 | 0.0 | 0.13 | 0.00 | 0.15 | 99 | 1013.8 |
| 20260506100805 | 12 | 0 | 0.0 | 0.0 | 0.13 | 0.00 | 0.15 | 99 | 1013.8 |
| 20260506100248 | 12 | 0 | 0.0 | 0.0 | 0.10 | 0.00 | 0.13 | 99 | 1013.5 |
| 20260506095740 | 13 | 0 | 0.0 | 0.0 | 0.08 | 0.00 | 0.10 | 99 | 1013.6 |
| 20260506094655 | 14 | 0 | 0.0 | 0.0 | 0.00 | 0.00 | 0.03 | 99 | 1013.5 |
| 20260506094137 | 13 | 0 | 0.0 | 0.0 | 0.00 | 0.00 | 0.03 | 99 | 1013.5 |
| 20260506093621 | 13 | 0 | 0.0 | 0.0 | 0.00 | 0.00 | 0.03 | 99 | 1013.5 |
| 20260506093103 | 13 | 0 | 0.0 | 0.0 | 0.00 | 0.00 | 0.03 | 99 | 1013.4 |
| 20260506092546 | 12 | 0 | 0.0 | 0.0 | 0.00 | 0.00 | 0.03 | 99 | 1013.3 |
| 20260506092037 | 11 | 0 | 0.0 | 0.0 | 0.00 | 0.00 | 0.03 | 99 | 1013.2 |
| 20260506091511 | 11 | 0 | 0.0 | 0.0 | 0.00 | 0.00 | 0.03 | 99 | 1013.3 |
| 20260506090954 | 11 | 0 | 0.0 | 0.0 | 0.00 | 0.00 | 0.03 | 99 | 1013.3 |
| 20260506090440 | 12 | 0 | 0.0 | 0.0 | 0.00 | 0.00 | 0.03 | 99 | 1013.2 |
| 20260506085919 | 12 | 0 | 0.0 | 0.0 | 0.00 | 0.00 | 0.03 | 99 | 1013.1 |
| 20260506085402 | 12 | 0 | 0.0 | 0.0 | 0.00 | 0.00 | 0.03 | 99 | 1012.9 |
| 20260506084851 | 12 | 0 | 0.0 | 0.0 | 0.00 | 0.00 | 0.03 | 99 | 1012.9 |
| 20260506084325 | 12 | 0 | 0.0 | 0.0 | 0.03 | 0.00 | 0.03 | 99 | 1012.9 |
| 20260506083808 | 13 | 0 | 0.0 | 0.0 | 0.03 | 0.00 | 0.03 | 99 | 1012.9 |
| 20260506083254 | 15 | 0 | 0.0 | 0.0 | 0.03 | 0.00 | 0.03 | 99 | 1012.9 |
| 20260506082733 | 15 | 0 | 0.0 | 0.0 | 0.00 | 0.00 | 0.00 | 99 | 1012.9 |
| 20260506082216 | 16 | 0 | 0.0 | 0.0 | 0.00 | 0.00 | 0.00 | 99 | 1012.8 |
| 20260506081707 | 15 | 0 | 0.0 | 0.0 | 0.00 | 0.00 | 0.00 | 99 | 1012.8 |
| 20260506081139 | 13 | 0 | 0.0 | 0.0 | 0.00 | 0.00 | 0.00 | 99 | 1012.9 |
| 20260506080619 | 12 | 0 | 0.0 | 0.0 | 0.00 | 0.00 | 0.00 | 99 | 1012.9 |
| 20260506073434 | 12 | 0 | 0.0 | 0.0 | 0.00 | 0.00 | 0.79 | 99 | 1012.9 |
| 20260506072917 | 12 | 0 | 0.0 | 0.0 | 0.00 | 0.00 | 0.79 | 99 | 1013.0 |
| 20260506071841 | 12 | 0 | 0.0 | 0.0 | 0.00 | 0.00 | 0.79 | 99 | 1013.0 |
| 20260506071341 | 12 | 0 | 0.0 | 0.0 | 0.00 | 0.00 | 0.79 | 99 | 1013.0 |
| 20260506070811 | 10 | 0 | 0.0 | 0.0 | 0.00 | 0.00 | 0.79 | 99 | 1013.0 |
| 20260506062022 | 10 | 0 | 0.0 | 0.0 | 0.00 | 0.00 | 0.71 | 99 | 1012.8 |
| 20260506061505 | 10 | 0 | 0.0 | 0.0 | 0.00 | 0.00 | 0.71 | 99 | 1012.8 |
| 20260506060946 | 10 | 0 | 0.0 | 0.0 | 0.00 | 0.00 | 0.71 | 99 | 1012.9 |
| 20260506060437 | 10 | 0 | 0.0 | 0.0 | 0.00 | 0.00 | 0.71 | 99 | 1012.8 |
| 20260506051137 | 9 | 0 | 0.0 | 0.0 | 0.00 | 0.00 | 0.71 | 99 | 1012.5 |
| 20260506050620 | 9 | 0 | 0.0 | 0.0 | 0.00 | 0.00 | 0.71 | 99 | 1012.4 |
| 20260506050112 | 9 | 0 | 0.0 | 0.0 | 0.00 | 0.00 | 0.71 | 99 | 1012.4 |
| 20260506045029 | 9 | 0 | 0.0 | 0.0 | 0.00 | 0.00 | 0.71 | 99 | 1012.5 |
| 20260506044511 | 9 | 0 | 0.0 | 0.0 | 0.03 | 0.00 | 0.71 | 99 | 1012.6 |
| 20260506043952 | 9 | 0 | 0.0 | 0.0 | 0.03 | 0.00 | 0.71 | 99 | 1012.7 |
| 20260506043433 | 9 | 0 | 0.0 | 0.0 | 0.03 | 0.00 | 0.71 | 99 | 1012.7 |
| 20260506042924 | 9 | 0 | 0.0 | 0.0 | 0.03 | 0.00 | 0.71 | 99 | 1012.6 |
| 20260506042359 | 9 | 0 | 0.0 | 0.0 | 0.03 | 0.00 | 0.71 | 99 | 1012.6 |
| 20260506041842 | 9 | 0 | 0.0 | 0.0 | 0.03 | 0.00 | 0.71 | 99 | 1012.5 |
| 20260506041325 | 9 | 0 | 0.0 | 0.0 | 0.03 | 0.00 | 0.71 | 99 | 1012.4 |
| 20260506040807 | 9 | 0 | 0.0 | 0.0 | 0.00 | 0.00 | 0.69 | 99 | 1012.7 |
| 20260506040250 | 9 | 0 | 0.0 | 0.0 | 0.00 | 0.00 | 0.69 | 99 | 1012.9 |
| 20260506035739 | 9 | 0 | 0.0 | 0.0 | 0.00 | 0.00 | 0.69 | 99 | 1012.9 |
| 20260506035214 | 9 | 0 | 0.0 | 0.0 | 0.00 | 0.00 | 0.69 | 99 | 1012.9 |
| 20260506034657 | 9 | 0 | 0.0 | 0.0 | 0.00 | 0.00 | 0.69 | 99 | 1012.9 |
| 20260506034139 | 9 | 0 | 0.0 | 0.0 | 0.10 | 0.00 | 0.69 | 99 | 1012.9 |
| 20260506033622 | 9 | 0 | 0.0 | 0.0 | 0.10 | 0.00 | 0.69 | 99 | 1013.1 |
| 20260506033105 | 9 | 0 | 0.0 | 0.0 | 0.10 | 0.00 | 0.69 | 99 | 1013.2 |
| 20260506032557 | 9 | 0 | 0.0 | 0.0 | 0.10 | 0.00 | 0.69 | 99 | 1013.2 |
| 20260506032029 | 9 | 0 | 0.0 | 0.0 | 0.08 | 0.00 | 0.66 | 99 | 1013.2 |
| 20260506031512 | 9 | 0 | 0.0 | 0.0 | 0.08 | 0.00 | 0.66 | 99 | 1013.3 |
| 20260506030955 | 9 | 0 | 0.0 | 0.0 | 0.08 | 0.00 | 0.66 | 99 | 1013.3 |
| 20260506030438 | 9 | 0 | 0.0 | 0.0 | 0.08 | 0.00 | 0.66 | 99 | 1013.4 |
| 20260506025921 | 9 | 0 | 0.0 | 0.0 | 0.05 | 0.00 | 0.64 | 99 | 1013.4 |
| 20260506025413 | 9 | 0 | 0.0 | 0.0 | 0.03 | 0.00 | 0.61 | 99 | 1013.5 |
| 20260506024847 | 9 | 0 | 0.0 | 0.0 | 0.00 | 0.00 | 0.58 | 99 | 1013.5 |
| 20260506024329 | 9 | 0 | 0.0 | 0.0 | 0.00 | 0.00 | 0.58 | 99 | 1013.4 |
| 20260506023812 | 9 | 0 | 0.0 | 0.0 | 0.00 | 0.00 | 0.58 | 99 | 1013.4 |
| 20260506023255 | 9 | 0 | 0.0 | 0.0 | 0.00 | 0.00 | 0.58 | 99 | 1013.3 |
| 20260506022739 | 9 | 0 | 0.0 | 0.0 | 0.00 | 0.00 | 0.58 | 99 | 1013.2 |
| 20260506022230 | 9 | 0 | 0.0 | 0.0 | 0.00 | 0.00 | 0.58 | 99 | 1013.2 |
| 20260506021704 | 9 | 0 | 0.0 | 0.0 | 0.00 | 0.00 | 0.58 | 99 | 1013.2 |
| 20260506021147 | 9 | 0 | 0.0 | 0.0 | 0.00 | 0.00 | 0.58 | 99 | 1013.2 |
| 20260506020628 | 9 | 0 | 0.0 | 0.0 | 0.00 | 0.00 | 0.58 | 99 | 1013.3 |
| 20260506020111 | 9 | 0 | 0.0 | 0.0 | 0.00 | 0.00 | 0.58 | 99 | 1013.0 |
| 20260506015552 | 9 | 0 | 0.0 | 0.0 | 0.00 | 0.00 | 0.58 | 99 | 1013.0 |
| 20260506015041 | 9 | 0 | 0.0 | 0.0 | 0.00 | 0.00 | 0.58 | 99 | 1013.0 |
| 20260506014515 | 8 | 0 | 0.0 | 0.0 | 0.00 | 0.00 | 0.58 | 99 | 1013.0 |
| 20260506013958 | 8 | 0 | 0.0 | 0.0 | 0.00 | 0.00 | 0.58 | 99 | 1013.0 |
| 20260506013441 | 8 | 0 | 0.0 | 0.0 | 0.00 | 0.00 | 0.58 | 99 | 1013.1 |
| 20260506012922 | 8 | 0 | 0.0 | 0.0 | 0.00 | 0.00 | 0.58 | 99 | 1013.2 |
| 20260506012405 | 8 | 0 | 0.0 | 0.0 | 0.00 | 0.00 | 0.58 | 99 | 1013.3 |
| 20260506011857 | 8 | 0 | 0.0 | 0.0 | 0.00 | 0.00 | 0.58 | 99 | 1013.3 |
| 20260506011331 | 8 | 0 | 0.0 | 0.0 | 0.00 | 0.00 | 0.58 | 99 | 1013.3 |
| 20260506010814 | 8 | 0 | 0.0 | 0.0 | 0.00 | 0.00 | 0.58 | 99 | 1013.3 |
| 20260506010254 | 8 | 0 | 0.0 | 0.0 | 0.00 | 0.00 | 0.58 | 99 | 1013.4 |
| 20260506005738 | 9 | 0 | 0.0 | 0.0 | 0.00 | 0.00 | 0.58 | 99 | 1013.5 |
| 20260506005221 | 9 | 0 | 0.0 | 0.0 | 0.00 | 0.00 | 0.58 | 99 | 1013.6 |
| 20260506004712 | 9 | 0 | 0.0 | 0.0 | 0.00 | 0.00 | 0.58 | 99 | 1013.6 |
| 20260506004146 | 9 | 0 | 0.0 | 0.0 | 0.08 | 0.00 | 0.58 | 99 | 1013.6 |
| 20260506003627 | 9 | 0 | 0.0 | 0.0 | 0.08 | 0.00 | 0.58 | 99 | 1013.6 |
| 20260506003113 | 9 | 0 | 0.0 | 0.0 | 0.08 | 0.00 | 0.58 | 99 | 1013.6 |
| 20260506002550 | 9 | 0 | 0.0 | 0.0 | 0.05 | 0.00 | 0.56 | 99 | 1013.6 |
| 20260506002033 | 9 | 0 | 0.0 | 0.0 | 0.05 | 0.00 | 0.56 | 99 | 1013.8 |
| 20260506001525 | 10 | 0 | 0.0 | 0.0 | 0.05 | 0.00 | 0.56 | 99 | 1013.7 |
| 20260506000959 | 10 | 0 | 0.0 | 0.0 | 0.05 | 0.00 | 0.56 | 99 | 1013.7 |
| 20260506000442 | 10 | 0 | 0.0 | 0.0 | 0.05 | 0.00 | 0.56 | 99 | 1013.7 |
| 20260505235925 | 10 | 0 | 0.0 | 0.0 | 0.03 | 0.00 | 0.51 | 99 | 1013.9 |
| 20260505235405 | 10 | 0 | 0.0 | 0.0 | 0.03 | 0.00 | 0.51 | 99 | 1014.0 |
| 20260505234849 | 10 | 0 | 0.0 | 0.0 | 0.00 | 0.00 | 0.48 | 99 | 1014.2 |
| 20260505234339 | 10 | 0 | 0.0 | 0.0 | 0.00 | 0.00 | 0.48 | 99 | 1014.0 |
| 20260505233811 | 10 | 0 | 0.0 | 0.0 | 0.00 | 0.00 | 0.48 | 99 | 1014.0 |
| 20260505233254 | 10 | 0 | 0.0 | 0.0 | 0.00 | 0.00 | 0.48 | 99 | 1014.0 |
| 20260505232738 | 10 | 0 | 0.0 | 0.0 | 0.00 | 0.00 | 0.48 | 99 | 1013.9 |
| 20260505232218 | 9 | 0 | 0.0 | 0.0 | 0.00 | 0.00 | 0.48 | 99 | 1013.8 |
| 20260505231659 | 9 | 0 | 0.0 | 0.0 | 0.00 | 0.00 | 0.48 | 99 | 1013.9 |
| 20260505231149 | 9 | 0 | 0.0 | 0.0 | 0.00 | 0.00 | 0.48 | 99 | 1013.9 |
| 20260505230623 | 9 | 0 | 0.0 | 0.0 | 0.00 | 0.00 | 0.48 | 99 | 1013.9 |
| 20260505230104 | 9 | 0 | 0.0 | 0.0 | 0.00 | 0.00 | 0.48 | 99 | 1013.9 |
| 20260505225544 | 9 | 0 | 0.0 | 0.0 | 0.00 | 0.00 | 0.48 | 99 | 1013.9 |
| 20260505225028 | 9 | 0 | 0.0 | 0.0 | 0.00 | 0.00 | 0.48 | 99 | 1013.9 |
| 20260505224510 | 9 | 0 | 0.0 | 0.0 | 0.00 | 0.00 | 0.48 | 99 | 1014.0 |
| 20260505224001 | 9 | 0 | 0.0 | 0.0 | 0.00 | 0.00 | 0.48 | 99 | 1014.0 |
| 20260505223432 | 9 | 0 | 0.0 | 0.0 | 0.00 | 0.00 | 0.48 | 99 | 1014.0 |
| 20260505222913 | 10 | 0 | 0.0 | 0.0 | 0.00 | 0.00 | 0.48 | 99 | 1014.0 |
| 20260505222356 | 10 | 0 | 0.0 | 0.0 | 0.00 | 0.00 | 0.48 | 99 | 1014.1 |
| 20260505221837 | 10 | 0 | 0.0 | 0.0 | 0.00 | 0.00 | 0.48 | 99 | 1014.1 |
| 20260505221320 | 10 | 0 | 0.0 | 0.0 | 0.00 | 0.00 | 0.48 | 99 | 1014.1 |
| 20260505220812 | 10 | 0 | 0.0 | 0.0 | 0.00 | 0.00 | 0.48 | 99 | 1014.0 |
| 20260505220243 | 10 | 0 | 0.0 | 0.0 | 0.00 | 0.00 | 0.48 | 99 | 1014.1 |
| 20260505215726 | 10 | 0 | 0.0 | 0.0 | 0.00 | 0.00 | 0.48 | 99 | 1014.1 |
| 20260505215209 | 10 | 0 | 0.0 | 0.0 | 0.00 | 0.00 | 0.48 | 99 | 1014.2 |
| 20260505214652 | 10 | 0 | 0.0 | 0.0 | 0.00 | 0.00 | 0.48 | 99 | 1014.1 |
| 20260505214135 | 10 | 0 | 0.0 | 0.0 | 0.00 | 0.00 | 0.48 | 99 | 1014.1 |
| 20260505213624 | 10 | 0 | 0.0 | 0.0 | 0.00 | 0.00 | 0.48 | 99 | 1014.2 |
| 20260505213056 | 10 | 0 | 0.0 | 0.0 | 0.00 | 0.00 | 0.48 | 99 | 1014.3 |
| 20260505212539 | 10 | 0 | 0.0 | 0.0 | 0.00 | 0.00 | 0.48 | 99 | 1014.3 |
| 20260505212022 | 10 | 0 | 0.0 | 0.0 | 0.00 | 0.00 | 0.48 | 99 | 1014.3 |
| 20260505211505 | 10 | 0 | 0.0 | 0.0 | 0.00 | 0.00 | 0.48 | 99 | 1014.4 |
| 20260505210948 | 10 | 0 | 0.0 | 0.0 | 0.00 | 0.00 | 0.48 | 99 | 1014.4 |
| 20260505210440 | 10 | 0 | 0.0 | 0.0 | 0.00 | 0.00 | 0.48 | 99 | 1014.4 |
| 20260505205914 | 10 | 0 | 0.0 | 0.0 | 0.00 | 0.00 | 0.48 | 99 | 1014.4 |
| 20260505205357 | 10 | 0 | 0.0 | 0.0 | 0.00 | 0.00 | 0.48 | 99 | 1014.4 |
| 20260505204839 | 10 | 0 | 0.0 | 0.0 | 0.00 | 0.00 | 0.48 | 99 | 1014.4 |
| 20260505204322 | 10 | 0 | 0.0 | 0.0 | 0.00 | 0.00 | 0.48 | 99 | 1014.4 |
| 20260505203807 | 10 | 0 | 0.0 | 0.0 | 0.00 | 0.00 | 0.48 | 99 | 1014.3 |
| 20260505203254 | 11 | 0 | 0.0 | 0.0 | 0.00 | 0.00 | 0.48 | 99 | 1014.2 |
| 20260505202728 | 11 | 0 | 0.0 | 0.0 | 0.00 | 0.00 | 0.48 | 99 | 1014.2 |
| 20260505202211 | 10 | 0 | 0.0 | 0.0 | 0.00 | 0.00 | 0.48 | 99 | 1014.2 |
| 20260505201656 | 10 | 0 | 0.0 | 0.0 | 0.00 | 0.00 | 0.48 | 99 | 1014.3 |
| 20260505201138 | 10 | 0 | 0.0 | 0.0 | 0.00 | 0.00 | 0.48 | 99 | 1014.1 |
| 20260505200618 | 10 | 0 | 0.0 | 0.0 | 0.00 | 0.00 | 0.48 | 99 | 1014.1 |
| 20260505200110 | 10 | 0 | 0.0 | 0.0 | 0.00 | 0.00 | 0.48 | 99 | 1014.1 |
| 20260505195544 | 10 | 0 | 0.0 | 0.0 | 0.00 | 0.00 | 0.48 | 99 | 1014.0 |
| 20260505195027 | 10 | 0 | 0.0 | 0.0 | 0.00 | 0.00 | 0.48 | 99 | 1013.9 |
| 20260505194509 | 10 | 0 | 0.0 | 0.0 | 0.00 | 0.00 | 0.48 | 99 | 1013.9 |
| 20260505193948 | 10 | 0 | 0.0 | 0.0 | 0.00 | 0.00 | 0.48 | 99 | 1013.8 |
| 20260505193431 | 11 | 0 | 0.0 | 0.0 | 0.00 | 0.00 | 0.48 | 99 | 1013.8 |
| 20260505192923 | 11 | 0 | 0.0 | 0.0 | 0.00 | 0.00 | 0.48 | 99 | 1013.7 |
| 20260505192356 | 11 | 0 | 0.0 | 0.0 | 0.00 | 0.00 | 0.48 | 99 | 1013.7 |
| 20260505191839 | 11 | 0 | 0.0 | 0.0 | 0.00 | 0.00 | 0.48 | 99 | 1013.6 |
| 20260505191322 | 11 | 0 | 0.0 | 0.0 | 0.00 | 0.00 | 0.48 | 99 | 1013.6 |
| 20260505190805 | 12 | 0 | 0.0 | 0.0 | 0.00 | 0.00 | 0.48 | 99 | 1013.6 |
| 20260505190248 | 12 | 0 | 0.0 | 0.0 | 0.00 | 0.00 | 0.48 | 99 | 1013.5 |
| 20260505185737 | 12 | 0 | 0.0 | 0.0 | 0.00 | 0.00 | 0.48 | 99 | 1013.5 |
| 20260505185212 | 12 | 0 | 0.0 | 0.0 | 0.00 | 0.00 | 0.48 | 99 | 1013.5 |
| 20260505184655 | 12 | 0 | 0.0 | 0.0 | 0.00 | 0.00 | 0.48 | 99 | 1013.5 |
| 20260505184137 | 12 | 0 | 0.0 | 0.0 | 0.00 | 0.00 | 0.48 | 99 | 1013.5 |
| 20260505183618 | 13 | 0 | 0.0 | 0.0 | 0.00 | 0.00 | 0.48 | 99 | 1013.4 |
| 20260505183101 | 13 | 0 | 0.0 | 0.0 | 0.00 | 0.00 | 0.48 | 99 | 1013.3 |
| 20260505182552 | 14 | 0 | 0.0 | 0.0 | 0.00 | 0.00 | 0.48 | 99 | 1013.3 |
| 20260505182026 | 15 | 0 | 0.0 | 0.0 | 0.00 | 0.00 | 0.48 | 99 | 1013.3 |
| 20260505181509 | 15 | 0 | 0.0 | 0.0 | 0.00 | 0.00 | 0.48 | 99 | 1013.3 |
| 20260505180952 | 16 | 0 | 0.0 | 0.0 | 0.00 | 0.00 | 0.48 | 99 | 1013.4 |
| 20260505180435 | 15 | 0 | 0.0 | 0.0 | 0.00 | 0.00 | 0.48 | 99 | 1013.4 |
| 20260505175918 | 14 | 0 | 0.0 | 0.0 | 0.00 | 0.00 | 0.48 | 99 | 1013.3 |
| 20260505175412 | 14 | 0 | 0.0 | 0.0 | 0.00 | 0.00 | 0.48 | 99 | 1013.4 |
| 20260505174843 | 14 | 0 | 0.0 | 0.0 | 0.00 | 0.00 | 0.48 | 99 | 1013.4 |
| 20260505174324 | 14 | 0 | 0.0 | 0.0 | 0.00 | 0.00 | 0.48 | 99 | 1013.3 |
| 20260505173807 | 15 | 0 | 0.0 | 0.0 | 0.00 | 0.00 | 0.48 | 99 | 1013.4 |
| 20260505173250 | 15 | 0 | 0.0 | 0.0 | 0.00 | 0.00 | 0.48 | 99 | 1013.4 |
| 20260505172734 | 15 | 0 | 0.0 | 0.0 | 0.00 | 0.00 | 0.48 | 99 | 1013.3 |
| 20260505172224 | 15 | 0 | 0.0 | 0.0 | 0.00 | 0.00 | 0.48 | 99 | 1013.4 |
| 20260505171656 | 15 | 0 | 0.0 | 0.0 | 0.00 | 0.00 | 0.48 | 99 | 1013.3 |
| 20260505171142 | 15 | 0 | 0.0 | 0.0 | 0.00 | 0.00 | 0.48 | 99 | 1013.4 |
| 20260505170619 | 15 | 0 | 0.0 | 0.0 | 0.00 | 0.00 | 0.48 | 99 | 1013.4 |
| 20260505170106 | 16 | 0 | 0.0 | 0.0 | 0.00 | 0.00 | 0.48 | 99 | 1013.3 |
| 20260505165025 | 15 | 0 | 0.0 | 0.0 | 0.00 | 0.00 | 0.48 | 99 | 1013.4 |
| 20260505164516 | 16 | 0 | 0.0 | 0.0 | 0.00 | 0.00 | 0.48 | 99 | 1013.4 |
| 20260505163952 | 16 | 0 | 0.0 | 0.0 | 0.00 | 0.00 | 0.48 | 99 | 1013.4 |
| 20260505163431 | 17 | 0 | 0.0 | 0.0 | 0.00 | 0.00 | 0.48 | 99 | 1013.4 |
| 20260505162356 | 16 | 0 | 0.0 | 0.0 | 0.00 | 0.00 | 0.48 | 99 | 1013.5 |
| 20260505161836 | 16 | 0 | 0.0 | 0.0 | 0.00 | 0.00 | 0.48 | 99 | 1013.5 |
| 20260505161319 | 17 | 0 | 0.0 | 0.0 | 0.00 | 0.00 | 0.48 | 99 | 1013.6 |
| 20260505160810 | 17 | 0 | 0.0 | 0.0 | 0.00 | 0.00 | 0.48 | 99 | 1013.5 |
| 20260505160245 | 17 | 0 | 0.0 | 0.0 | 0.00 | 0.00 | 0.48 | 99 | 1013.6 |
| 20260505153102 | 16 | 0 | 0.0 | 0.0 | 0.00 | 0.00 | 0.48 | 99 | 1013.3 |
| 20260505152545 | 16 | 0 | 0.0 | 0.0 | 0.00 | 0.00 | 0.48 | 99 | 1013.4 |
| 20260505151505 | 16 | 0 | 0.0 | 0.0 | 0.00 | 0.00 | 0.48 | 99 | 1013.4 |
| 20260505150951 | 16 | 0 | 0.0 | 0.0 | 0.00 | 0.00 | 0.48 | 99 | 1013.4 |
| 20260505150436 | 16 | 0 | 0.0 | 0.0 | 0.00 | 0.00 | 0.48 | 99 | 1013.4 |
| 20260505140611 | 16 | 0 | 0.0 | 0.0 | 0.00 | 0.00 | 0.48 | 99 | 1013.6 |